TimeMDT,TemperatureF,Dew PointF,Humidity,Sea Level PressureIn,VisibilityMPH,Wind Direction,Wind SpeedMPH,Gust SpeedMPH,PrecipitationIn,Events,Conditions,WindDirDegrees,DateUTC
12:53 AM,30.0,21.9,72,29.90,10.0,South,11.5,-,N/A,,Clear,170,2013-03-17 06:53:00
1:53 AM,28.0,21.0,75,29.91,10.0,SE,11.5,-,N/A,,Clear,140,2013-03-17 07:53:00
2:53 AM,28.9,21.9,75,29.88,10.0,South,11.5,-,N/A,,Clear,190,2013-03-17 08:53:00
4:53 AM,26.1,21.0,81,29.83,10.0,South,12.7,-,N/A,,Clear,190,2013-03-17 10:53:00
5:53 AM,24.1,19.9,84,29.84,10.0,South,11.5,-,N/A,,Clear,190,2013-03-17 11:53:00
6:33 AM,24.8,19.4,80,29.82,10.0,South,15.0,-,N/A,,Partly Cloudy,190,2013-03-17 12:33:00
6:53 AM,25.0,19.9,81,29.84,10.0,South,15.0,-,N/A,,Partly Cloudy,190,2013-03-17 12:53:00
7:53 AM,28.0,21.0,75,29.81,10.0,South,16.1,-,N/A,,Clear,170,2013-03-17 13:53:00
8:53 AM,36.0,23.0,59,29.76,10.0,South,24.2,32.2,N/A,,Clear,170,2013-03-17 14:53:00
9:53 AM,39.9,21.9,49,29.77,10.0,South,21.9,29.9,N/A,,Clear,180,2013-03-17 15:53:00
10:53 AM,46.0,21.9,39,29.71,10.0,South,27.6,34.5,N/A,,Clear,170,2013-03-17 16:53:00
11:53 AM,51.1,21.9,32,29.66,10.0,South,29.9,39.1,N/A,,Clear,170,2013-03-17 17:53:00
12:53 PM,51.1,24.1,35,29.62,10.0,SSE,26.5,34.5,N/A,,Clear,160,2013-03-17 18:53:00
1:53 PM,53.1,25.0,34,29.59,10.0,South,25.3,-,N/A,,Scattered Clouds,190,2013-03-17 19:53:00
2:53 PM,52.0,26.1,37,29.55,10.0,South,21.9,27.6,N/A,,Partly Cloudy,170,2013-03-17 20:53:00
3:53 PM,55.9,27.0,33,29.52,10.0,South,21.9,26.5,N/A,,Clear,180,2013-03-17 21:53:00
4:53 PM,54.0,28.0,37,29.50,10.0,South,19.6,32.2,N/A,,Partly Cloudy,170,2013-03-17 22:53:00
5:53 PM,53.1,28.0,38,29.52,10.0,SSE,21.9,28.8,N/A,,Clear,150,2013-03-17 23:53:00
6:53 PM,46.9,28.9,50,29.57,10.0,ESE,10.4,-,N/A,,Clear,120,2013-03-18 00:53:00
7:53 PM,44.1,28.9,55,29.65,10.0,ENE,8.1,-,N/A,,Partly Cloudy,70,2013-03-18 01:53:00
8:53 PM,39.9,28.0,63,29.68,10.0,North,6.9,-,N/A,,Mostly Cloudy,10,2013-03-18 02:53:00
9:53 PM,46.0,30.9,56,29.70,10.0,North,19.6,25.3,N/A,,Mostly Cloudy,10,2013-03-18 03:53:00
10:53 PM,42.1,10.0,27,29.78,10.0,NNW,16.1,-,N/A,,Overcast,340,2013-03-18 04:53:00
11:53 PM,37.0,21.0,52,29.81,10.0,North,21.9,31.1,N/A,,Mostly Cloudy,360,2013-03-18 05:53:00